Date String (YYYY-MM-DD hh:mm:ss) UTC,Instrument flags,absolute air pressure of the measurement (hPa),sample flow rate (lpm),inlet stack bypass flow (lpm),air temperature of the measurement (°C),ambient temperature measured by the external sensor (°C),aerosol sample conditioner tube jacket temperature (°C),OPC LED temperature (°C),internal box temperature (°C),relative humidity of the measurement (%),span deviation,mass concentration of particles derived from Lorenz-Mie calculation of OPC scattering (μg/m³),mass concentration of particles derived from Lorenz-Mie calculation of OPC scattering (μg/m³),mass concentration of particles derived from Lorenz-Mie calculation of OPC scattering (μg/m³)
DateTimeUTC,F1_M11,P_M11,Q1_M11,Q2_M11,T1_M11,T2_M11,T3_M11,T4_M11,T5_M11,U1_M11,ZSPAN_M11,X0_M11,X2_M11,X1_M11
2023-11-07 02:00:00,SystemResetWarning,0823.8,5.01,000.00,027.5,026.4,000.0,035.8,029.0,11.0,0004.8,0027.27,0006.85,0004.94
2023-11-07 02:01:00,SystemResetWarning,0823.8,5.01,000.00,027.5,026.5,000.0,035.8,029.1,10.7,0004.8,0029.78,0006.78,0004.91
2023-11-07 02:02:00,SystemResetWarning,0823.7,5.00,000.00,027.5,026.6,000.0,035.8,029.1,10.6,0005.0,0030.79,0006.73,0004.89
2023-11-07 02:03:00,SystemResetWarning,0823.7,5.00,000.00,027.5,026.6,000.0,035.8,029.1,10.6,0005.2,0031.23,0006.69,0004.85
2023-11-07 02:04:00,SystemResetWarning,0823.6,5.00,000.00,027.6,026.7,000.0,035.9,029.1,10.5,0005.2,0029.67,0006.66,0004.81
2023-11-07 02:05:00,SystemResetWarning,0823.5,5.00,000.00,027.6,026.7,000.0,035.9,029.1,10.4,0005.4,0029.29,0006.55,0004.77
2023-11-07 02:06:00,SystemResetWarning,0823.5,5.00,000.00,027.6,026.7,000.0,035.9,029.2,10.4,0005.3,0029.55,0006.44,0004.73
2023-11-07 02:07:00,SystemResetWarning,0823.5,5.00,000.00,027.6,026.8,000.0,035.9,029.2,10.4,0005.5,0029.71,0006.37,0004.69
2023-11-07 02:08:00,SystemResetWarning,0823.5,5.00,000.00,027.7,026.8,000.0,035.9,029.2,10.5,0005.6,0027.51,0006.27,0004.66
2023-11-07 02:09:00,SystemResetWarning,0823.5,4.99,000.00,027.7,026.8,000.0,035.9,029.2,10.6,0005.8,0024.96,0006.15,0004.63
2023-11-07 02:10:00,SystemResetWarning,0823.6,5.00,000.00,027.7,026.9,000.0,036.0,029.3,10.5,0005.9,0023.30,0006.05,0004.61
2023-11-07 02:11:00,SystemResetWarning,0823.6,5.00,000.00,027.7,026.9,000.0,036.0,029.3,10.5,0005.9,0022.57,0006.00,0004.60
2023-11-07 02:12:00,SystemResetWarning,0823.5,5.00,000.00,027.7,026.9,000.0,036.0,029.3,10.6,0005.8,0019.82,0005.96,0004.58
2023-11-07 02:13:00,SystemResetWarning,0823.5,5.00,000.00,027.8,026.9,000.0,036.0,029.3,10.6,0005.7,0017.74,0005.92,0004.57
2023-11-07 02:14:00,SystemResetWarning,0823.5,5.00,000.00,027.8,027.0,000.0,036.0,029.3,10.5,0005.2,0017.54,0005.89,0004.58
2023-11-07 02:15:00,SystemResetWarning,0823.4,5.00,000.00,027.8,027.0,000.0,036.0,029.3,10.5,0004.4,0019.11,0005.90,0004.60
2023-11-07 02:16:00,SystemResetWarning,0823.5,5.00,000.00,027.8,027.0,000.0,036.1,029.4,10.5,0004.3,0019.69,0005.92,0004.61
2023-11-07 02:17:00,SystemResetWarning,0823.5,4.99,000.00,027.8,027.0,000.0,036.1,029.4,10.4,0004.6,0019.46,0005.92,0004.63
2023-11-07 02:18:00,SystemResetWarning,0823.5,4.99,000.00,027.9,027.1,000.0,036.1,029.4,10.4,0001.6,0018.74,0005.95,0004.62
2023-11-07 02:19:00,SystemResetWarning,0823.5,5.00,000.00,027.9,027.1,000.0,036.1,029.4,10.2,0000.0,0019.39,0005.99,0004.62
2023-11-07 02:20:00,SystemResetWarning,0823.5,5.00,000.00,027.9,027.1,000.0,036.1,029.4,10.0,0000.0,0020.55,0006.05,0004.62
2023-11-07 02:21:00,SystemResetWarning,0823.5,5.00,000.00,027.9,027.1,000.0,036.1,029.4,9.8,0000.0,0021.15,0006.09,0004.63
2023-11-07 02:22:00,SystemResetWarning,0823.5,5.00,000.00,027.9,027.1,000.0,036.2,029.4,9.8,0000.0,0021.11,0006.04,0004.62
2023-11-07 02:23:00,SystemResetWarning,0823.5,5.00,000.00,027.9,027.1,000.0,036.2,029.4,9.8,0000.0,0020.70,0006.03,0004.62
2023-11-07 02:24:00,SystemResetWarning,0823.5,5.00,000.00,027.9,027.1,000.0,036.2,029.5,9.9,0000.0,0021.82,0006.02,0004.60
2023-11-07 02:25:00,SystemResetWarning,0823.5,5.00,000.00,028.0,027.2,000.0,036.2,029.5,10.0,0003.3,0021.80,0005.99,0004.57
2023-11-07 02:26:00,SystemResetWarning,0823.5,5.00,000.00,028.0,027.2,000.0,036.2,029.5,10.0,0004.8,0020.60,0005.97,0004.54
2023-11-07 02:27:00,SystemResetWarning,0823.5,5.00,000.00,028.0,027.2,000.0,036.2,029.5,10.0,0004.8,0019.81,0005.97,0004.53
2023-11-07 02:28:00,SystemResetWarning,0823.5,5.00,000.00,028.0,027.2,000.0,036.3,029.5,10.1,0004.6,0020.10,0005.95,0004.51
2023-11-07 02:29:00,SystemResetWarning,0823.5,5.00,000.00,028.0,027.2,000.0,036.3,029.5,10.0,0004.4,0019.63,0005.89,0004.51
2023-11-07 02:30:00,SystemResetWarning,0823.5,5.00,000.00,028.1,027.2,000.0,036.3,029.5,10.0,0004.6,0019.43,0005.80,0004.51
2023-11-07 02:31:00,SystemResetWarning,0823.5,5.01,000.00,028.1,027.2,000.0,036.3,029.6,9.8,0004.5,0019.32,0005.74,0004.50
2023-11-07 02:32:00,SystemResetWarning,0823.5,5.01,000.00,028.1,027.3,000.0,036.3,029.6,9.7,0004.6,0018.94,0005.69,0004.49
2023-11-07 02:33:00,SystemResetWarning,0823.6,5.00,000.00,028.1,027.3,000.0,036.3,029.6,9.6,0004.3,0018.49,0005.70,0004.48
2023-11-07 02:34:00,SystemResetWarning,0823.6,4.99,000.00,028.1,027.3,000.0,036.3,029.6,9.6,0004.4,0019.28,0005.68,0004.47
2023-11-07 02:35:00,SystemResetWarning,0823.6,4.99,000.00,028.1,027.3,000.0,036.4,029.6,9.6,0004.7,0018.70,0005.61,0004.45
2023-11-07 02:36:00,SystemResetWarning,0823.6,5.00,000.00,028.1,027.3,000.0,036.4,029.6,9.5,0005.1,0018.26,0005.55,0004.45
2023-11-07 02:37:00,SystemResetWarning,0823.6,5.01,000.00,028.1,027.3,000.0,036.4,029.6,9.6,0005.5,0017.95,0005.50,0004.44
2023-11-07 02:38:00,SystemResetWarning,0823.6,5.01,000.00,028.1,027.3,000.0,036.4,029.6,9.5,0005.7,0018.42,0005.43,0004.41
2023-11-07 02:39:00,SystemResetWarning,0823.6,4.99,000.00,028.2,027.3,000.0,036.4,029.6,9.5,0005.6,0017.63,0005.41,0004.40
2023-11-07 02:40:00,SystemResetWarning,0823.6,5.00,000.00,028.2,027.3,000.0,036.4,029.6,9.5,0005.6,0017.51,0005.35,0004.38
2023-11-07 02:41:00,SystemResetWarning,0823.6,5.00,000.00,028.2,027.4,000.0,036.4,029.6,9.5,0005.6,0016.50,0005.30,0004.35
2023-11-07 02:42:00,SystemResetWarning,0823.6,5.01,000.00,028.2,027.4,000.0,036.5,029.7,9.5,0004.3,0015.32,0005.27,0004.33
2023-11-07 02:43:00,SystemResetWarning,0823.6,5.01,000.00,028.2,027.4,000.0,036.5,029.7,9.5,0005.2,0015.72,0005.25,0004.32
2023-11-07 02:44:00,SystemResetWarning,0823.5,5.01,000.00,028.2,027.4,000.0,036.5,029.7,9.5,0005.3,0016.20,0005.21,0004.31
2023-11-07 02:45:00,SystemResetWarning,0823.5,5.00,000.00,028.2,027.4,000.0,036.5,029.7,9.5,0005.3,0015.51,0005.19,0004.30
2023-11-07 02:46:00,SystemResetWarning,0823.6,4.99,000.00,028.2,027.2,000.0,036.5,029.7,9.5,0005.2,0014.78,0005.20,0004.30
2023-11-07 02:47:00,SystemResetWarning,0823.6,4.98,000.00,028.2,025.1,000.0,036.5,029.5,9.6,0004.9,0014.83,0005.23,0004.30
2023-11-07 02:48:00,SystemResetWarning,0823.6,5.01,000.00,028.1,024.0,000.0,036.4,029.3,9.6,0001.1,0015.40,0005.18,0004.29
2023-11-07 02:49:00,SystemResetWarning,0823.6,5.01,000.00,027.9,024.1,000.0,036.4,028.9,9.7,0004.0,0014.38,0005.15,0004.28
2023-11-07 02:50:00,SystemResetWarning,0823.5,4.99,000.00,027.8,024.5,000.0,036.3,028.8,9.8,0004.2,0014.69,0005.12,0004.28
2023-11-07 02:51:00,SystemResetWarning,0823.6,5.00,000.00,027.7,024.9,000.0,036.3,028.8,9.9,0004.3,0014.09,0005.12,0004.26
2023-11-07 02:52:00,SystemResetWarning,0823.6,5.00,000.00,027.7,025.3,000.0,036.2,028.8,9.9,0003.8,0014.10,0005.16,0004.26
2023-11-07 02:53:00,SystemResetWarning,0823.6,5.00,000.00,027.6,025.6,000.0,036.2,028.9,9.9,0003.7,0014.41,0005.16,0004.27
2023-11-07 02:54:00,SystemResetWarning,0823.7,4.99,000.00,027.6,025.8,000.0,036.2,029.0,9.8,0003.7,0014.35,0005.12,0004.26
2023-11-07 02:55:00,SystemResetWarning,0823.7,4.99,000.00,027.6,026.0,000.0,036.1,029.0,9.8,0004.0,0013.22,0005.05,0004.24
2023-11-07 02:56:00,SystemResetWarning,0823.7,4.99,000.00,027.6,026.2,000.0,036.1,029.0,9.9,0003.9,0012.89,0005.03,0004.23
2023-11-07 02:57:00,SystemResetWarning,0823.7,5.01,000.00,027.6,026.3,000.0,036.1,029.0,9.8,0004.4,0012.63,0005.00,0004.23
2023-11-07 02:58:00,SystemResetWarning,0823.7,5.01,000.00,027.6,026.4,000.0,036.1,029.1,9.8,0004.5,0011.84,0004.97,0004.21
2023-11-07 02:59:00,SystemResetWarning,0823.7,5.00,000.00,027.7,026.5,000.0,036.1,029.1,9.7,0004.6,0010.61,0004.96,0004.19
